Time,TemperatureF,DewpointF,PressureIn,WindDirection,WindDirectionDegrees,WindSpeedMPH,WindSpeedGustMPH,Humidity,HourlyPrecipIn,Conditions,Clouds,dailyrainin,SoftwareType,DateUTC
2013-06-03 00:12:00,76.4,74.0,29.99,SSE,162,0.0,-999.0,91,-99.99,,,0.00,weatherlink.com 1.10,2013-06-03 04:12:00,
2013-06-03 00:27:00,76.1,73.0,29.99,SSE,162,0.0,-999.0,91,-99.99,,,0.00,weatherlink.com 1.10,2013-06-03 04:27:00,
2013-06-03 00:42:00,75.9,74.0,29.99,SSE,162,0.0,-999.0,92,-99.99,,,0.00,weatherlink.com 1.10,2013-06-03 04:42:00,
2013-06-03 00:57:00,75.8,73.0,29.98,SSE,162,0.0,-999.0,92,-99.99,,,0.00,weatherlink.com 1.10,2013-06-03 04:57:00,
2013-06-03 01:12:00,75.7,74.0,29.98,SSE,161,0.0,-999.0,93,-99.99,,,0.00,weatherlink.com 1.10,2013-06-03 05:12:00,
2013-06-03 01:27:00,75.6,74.0,29.97,SSE,161,0.0,-999.0,93,-99.99,,,0.00,weatherlink.com 1.10,2013-06-03 05:27:00,
2013-06-03 01:42:00,75.5,73.0,29.96,SSE,161,0.0,-999.0,93,-99.99,,,0.00,weatherlink.com 1.10,2013-06-03 05:42:00,
2013-06-03 01:57:00,75.5,73.0,29.96,SSE,161,0.0,-999.0,93,-99.99,,,0.00,weatherlink.com 1.10,2013-06-03 05:57:00,
2013-06-03 02:12:00,75.4,74.0,29.95,SSE,161,0.0,-999.0,94,-99.99,,,0.00,weatherlink.com 1.10,2013-06-03 06:12:00,
2013-06-03 02:27:00,75.2,73.0,29.95,SSE,161,0.0,-999.0,94,-99.99,,,0.00,weatherlink.com 1.10,2013-06-03 06:27:00,
2013-06-03 02:42:00,75.1,73.0,29.95,SSE,161,0.0,-999.0,94,-99.99,,,0.00,weatherlink.com 1.10,2013-06-03 06:42:00,
2013-06-03 02:57:00,75.0,73.0,29.94,SSE,161,0.0,-999.0,94,-99.99,,,0.00,weatherlink.com 1.10,2013-06-03 06:57:00,
2013-06-03 03:12:00,75.0,73.0,29.95,SSE,161,0.0,-999.0,94,-99.99,,,0.00,weatherlink.com 1.10,2013-06-03 07:12:00,
2013-06-03 03:27:00,74.8,73.0,29.95,SSE,161,0.0,-999.0,94,-99.99,,,0.00,weatherlink.com 1.10,2013-06-03 07:27:00,
2013-06-03 03:42:00,74.8,73.0,29.95,SSE,161,0.0,-999.0,94,-99.99,,,0.00,weatherlink.com 1.10,2013-06-03 07:42:00,
2013-06-03 03:57:00,74.9,73.0,29.95,SSE,161,0.0,-999.0,95,-99.99,,,0.00,weatherlink.com 1.10,2013-06-03 07:57:00,
2013-06-03 04:12:00,74.9,73.0,29.95,SSE,161,0.0,-999.0,95,-99.99,,,0.00,weatherlink.com 1.10,2013-06-03 08:12:00,
2013-06-03 04:27:00,75.0,74.0,29.95,SSE,161,0.0,-999.0,95,-99.99,,,0.00,weatherlink.com 1.10,2013-06-03 08:27:00,
2013-06-03 04:42:00,75.1,74.0,29.95,SSE,161,0.0,-999.0,95,-99.99,,,0.00,weatherlink.com 1.10,2013-06-03 08:42:00,
2013-06-03 04:57:00,75.2,74.0,29.95,SSE,161,0.0,-999.0,95,-99.99,,,0.00,weatherlink.com 1.10,2013-06-03 08:57:00,
2013-06-03 05:12:00,75.2,74.0,29.94,SSE,161,0.0,-999.0,95,-99.99,,,0.00,weatherlink.com 1.10,2013-06-03 09:12:00,
2013-06-03 05:27:00,75.3,74.0,29.94,SSE,161,0.0,-999.0,95,-99.99,,,0.00,weatherlink.com 1.10,2013-06-03 09:27:00,
2013-06-03 05:42:00,75.2,74.0,29.94,SSE,161,0.0,-999.0,95,-99.99,,,0.00,weatherlink.com 1.10,2013-06-03 09:42:00,
2013-06-03 05:57:00,75.1,74.0,29.94,SSE,161,0.0,-999.0,95,-99.99,,,0.00,weatherlink.com 1.10,2013-06-03 09:57:00,
2013-06-03 06:12:00,75.1,74.0,29.95,SSE,161,0.0,-999.0,95,-99.99,,,0.00,weatherlink.com 1.10,2013-06-03 10:12:00,
2013-06-03 06:27:00,75.2,74.0,29.95,SE,141,4.0,-999.0,95,-99.99,,,0.00,weatherlink.com 1.10,2013-06-03 10:27:00,
2013-06-03 06:42:00,75.2,74.0,29.95,ESE,110,0.0,-999.0,95,-99.99,,,0.00,weatherlink.com 1.10,2013-06-03 10:42:00,
2013-06-03 06:57:00,75.3,74.0,29.96,ESE,111,0.0,-999.0,94,-99.99,,,0.00,weatherlink.com 1.10,2013-06-03 10:57:00,
2013-06-03 07:12:00,75.5,74.0,29.97,SSE,149,0.0,-999.0,94,-99.99,,,0.00,weatherlink.com 1.10,2013-06-03 11:12:00,
2013-06-03 07:27:00,75.7,74.0,29.97,SE,144,0.0,-999.0,94,-99.99,,,0.00,weatherlink.com 1.10,2013-06-03 11:27:00,
2013-06-03 07:42:00,76.0,74.0,29.97,SE,128,5.0,-999.0,93,-99.99,,,0.00,weatherlink.com 1.10,2013-06-03 11:42:00,
2013-06-03 07:57:00,76.3,74.0,29.98,South,175,0.0,-999.0,92,-99.99,,,0.00,weatherlink.com 1.10,2013-06-03 11:57:00,
2013-06-03 08:12:00,76.7,74.0,29.98,SSE,159,0.0,-999.0,92,-99.99,,,0.00,weatherlink.com 1.10,2013-06-03 12:12:00,
2013-06-03 08:27:00,76.8,74.0,29.98,SSE,165,0.0,-999.0,92,-99.99,,,0.00,weatherlink.com 1.10,2013-06-03 12:27:00,
2013-06-03 08:42:00,76.9,75.0,29.98,SSE,153,0.0,-999.0,92,-99.99,,,0.00,weatherlink.com 1.10,2013-06-03 12:42:00,
2013-06-03 08:57:00,77.3,75.0,29.98,SSE,157,0.0,-999.0,92,-99.99,,,0.00,weatherlink.com 1.10,2013-06-03 12:57:00,
2013-06-03 09:12:00,77.8,75.0,29.99,SSE,158,0.0,-999.0,91,-99.99,,,0.00,weatherlink.com 1.10,2013-06-03 13:12:00,
2013-06-03 09:27:00,78.3,75.0,29.98,SSE,153,0.0,-999.0,90,-99.99,,,0.00,weatherlink.com 1.10,2013-06-03 13:27:00,
2013-06-03 09:42:00,78.7,76.0,29.98,South,170,0.0,-999.0,90,-99.99,,,0.00,weatherlink.com 1.10,2013-06-03 13:42:00,
2013-06-03 09:57:00,79.5,76.0,29.98,SSE,167,0.0,-999.0,90,-99.99,,,0.00,weatherlink.com 1.10,2013-06-03 13:57:00,
2013-06-03 10:12:00,80.2,77.0,29.98,SSE,161,0.0,-999.0,89,-99.99,,,0.00,weatherlink.com 1.10,2013-06-03 14:12:00,
2013-06-03 10:28:00,80.7,77.0,29.98,SSE,165,10.0,-999.0,87,-99.99,,,0.00,weatherlink.com 1.10,2013-06-03 14:28:00,
2013-06-03 10:43:00,81.0,76.0,29.99,South,173,7.0,-999.0,85,-99.99,,,0.00,weatherlink.com 1.10,2013-06-03 14:43:00,
2013-06-03 10:58:00,81.3,76.0,29.99,SSE,149,0.0,-999.0,84,-99.99,,,0.00,weatherlink.com 1.10,2013-06-03 14:58:00,
2013-06-03 11:13:00,81.5,76.0,30.00,SSE,161,2.0,-999.0,83,-99.99,,,0.00,weatherlink.com 1.10,2013-06-03 15:13:00,
2013-06-03 11:28:00,81.5,76.0,30.00,SSE,160,2.0,-999.0,84,-99.99,,,0.00,weatherlink.com 1.10,2013-06-03 15:28:00,
2013-06-03 11:43:00,81.5,76.0,30.00,SSE,166,1.0,-999.0,83,-99.99,,,0.00,weatherlink.com 1.10,2013-06-03 15:43:00,
2013-06-03 11:58:00,81.6,76.0,30.01,SSE,159,0.0,-999.0,84,-99.99,,,0.00,weatherlink.com 1.10,2013-06-03 15:58:00,
2013-06-03 12:13:00,81.9,77.0,30.00,SSE,159,1.0,-999.0,84,-99.99,,,0.00,weatherlink.com 1.10,2013-06-03 16:13:00,
2013-06-03 12:28:00,82.3,77.0,30.00,SSE,164,4.0,-999.0,83,-99.99,,,0.00,weatherlink.com 1.10,2013-06-03 16:28:00,
2013-06-03 12:43:00,82.3,77.0,30.00,South,172,0.0,-999.0,83,-99.99,,,0.00,weatherlink.com 1.10,2013-06-03 16:43:00,
2013-06-03 12:58:00,80.2,76.0,30.00,SSE,168,0.0,-999.0,87,-99.99,,,0.09,weatherlink.com 1.10,2013-06-03 16:58:00,
2013-06-03 13:13:00,79.1,76.0,29.99,SSE,157,0.0,-999.0,90,-99.99,,,0.09,weatherlink.com 1.10,2013-06-03 17:13:00,
2013-06-03 13:28:00,79.0,76.0,29.98,SSE,159,4.0,-999.0,91,-99.99,,,0.09,weatherlink.com 1.10,2013-06-03 17:28:00,
2013-06-03 13:43:00,79.5,76.0,29.98,SE,146,0.0,-999.0,90,-99.99,,,0.09,weatherlink.com 1.10,2013-06-03 17:43:00,
2013-06-03 13:58:00,79.8,76.0,29.98,NW,317,0.0,-999.0,88,-99.99,,,0.09,weatherlink.com 1.10,2013-06-03 17:58:00,
2013-06-03 14:13:00,79.9,76.0,29.98,South,184,0.0,-999.0,88,-99.99,,,0.09,weatherlink.com 1.10,2013-06-03 18:13:00,
2013-06-03 14:28:00,80.1,76.0,29.98,South,176,0.0,-999.0,88,-99.99,,,0.09,weatherlink.com 1.10,2013-06-03 18:28:00,
2013-06-03 14:43:00,79.9,76.0,29.97,South,189,0.0,-999.0,87,-99.99,,,0.09,weatherlink.com 1.10,2013-06-03 18:43:00,
2013-06-03 14:58:00,80.0,76.0,29.97,ESE,121,0.0,-999.0,87,-99.99,,,0.09,weatherlink.com 1.10,2013-06-03 18:58:00,
2013-06-03 15:13:00,80.0,76.0,29.97,SSE,161,1.0,-999.0,86,-99.99,,,0.09,weatherlink.com 1.10,2013-06-03 19:13:00,
2013-06-03 15:28:00,80.2,76.0,29.96,SE,146,0.0,-999.0,87,-99.99,,,0.09,weatherlink.com 1.10,2013-06-03 19:28:00,
2013-06-03 15:43:00,80.4,76.0,29.96,SSE,165,0.0,-999.0,87,-99.99,,,0.09,weatherlink.com 1.10,2013-06-03 19:43:00,
2013-06-03 15:58:00,80.7,77.0,29.96,WSW,248,4.0,-999.0,87,-99.99,,,0.09,weatherlink.com 1.10,2013-06-03 19:58:00,
2013-06-03 16:13:00,80.5,76.0,29.96,West,262,0.0,-999.0,87,-99.99,,,0.09,weatherlink.com 1.10,2013-06-03 20:13:00,
2013-06-03 16:28:00,80.2,76.0,29.96,West,276,1.0,-999.0,87,-99.99,,,0.09,weatherlink.com 1.10,2013-06-03 20:28:00,
2013-06-03 16:43:00,80.1,77.0,29.96,West,278,0.0,-999.0,89,-99.99,,,0.09,weatherlink.com 1.10,2013-06-03 20:43:00,
2013-06-03 16:58:00,79.9,77.0,29.96,West,277,0.0,-999.0,89,-99.99,,,0.09,weatherlink.com 1.10,2013-06-03 20:58:00,
2013-06-03 17:13:00,79.7,76.0,29.96,West,277,0.0,-999.0,88,-99.99,,,0.09,weatherlink.com 1.10,2013-06-03 21:13:00,
2013-06-03 17:28:00,79.1,75.0,29.96,West,277,0.0,-999.0,86,-99.99,,,0.09,weatherlink.com 1.10,2013-06-03 21:28:00,
2013-06-03 17:43:00,78.6,74.0,29.96,SW,228,0.0,-999.0,85,-99.99,,,0.09,weatherlink.com 1.10,2013-06-03 21:43:00,
2013-06-03 17:58:00,78.7,75.0,29.96,SW,228,0.0,-999.0,87,-99.99,,,0.09,weatherlink.com 1.10,2013-06-03 21:58:00,
2013-06-03 18:13:00,78.9,75.0,29.96,SW,228,0.0,-999.0,88,-99.99,,,0.09,weatherlink.com 1.10,2013-06-03 22:13:00,
2013-06-03 18:28:00,79.2,76.0,29.97,WSW,246,0.0,-999.0,89,-99.99,,,0.09,weatherlink.com 1.10,2013-06-03 22:28:00,
2013-06-03 18:43:00,79.3,76.0,29.97,WSW,257,0.0,-999.0,88,-99.99,,,0.09,weatherlink.com 1.10,2013-06-03 22:43:00,
2013-06-03 18:58:00,79.3,76.0,29.97,West,259,0.0,-999.0,88,-99.99,,,0.09,weatherlink.com 1.10,2013-06-03 22:58:00,
2013-06-03 19:13:00,79.3,76.0,29.96,West,259,0.0,-999.0,89,-99.99,,,0.09,weatherlink.com 1.10,2013-06-03 23:13:00,
2013-06-03 19:28:00,79.2,76.0,29.96,WSW,257,0.0,-999.0,89,-99.99,,,0.09,weatherlink.com 1.10,2013-06-03 23:28:00,
2013-06-03 19:43:00,79.1,76.0,29.95,WSW,248,0.0,-999.0,89,-99.99,,,0.09,weatherlink.com 1.10,2013-06-03 23:43:00,
2013-06-03 19:58:00,78.9,76.0,29.95,WSW,248,0.0,-999.0,89,-99.99,,,0.09,weatherlink.com 1.10,2013-06-03 23:58:00,
2013-06-03 20:13:00,78.8,75.0,29.95,WSW,248,0.0,-999.0,89,-99.99,,,0.09,weatherlink.com 1.10,2013-06-04 00:13:00,
2013-06-03 20:28:00,78.6,76.0,29.96,WSW,248,0.0,-999.0,90,-99.99,,,0.09,weatherlink.com 1.10,2013-06-04 00:28:00,
2013-06-03 20:43:00,78.5,75.0,29.97,WSW,248,0.0,-999.0,90,-99.99,,,0.09,weatherlink.com 1.10,2013-06-04 00:43:00,
2013-06-03 20:58:00,78.2,75.0,29.97,WSW,248,0.0,-999.0,91,-99.99,,,0.09,weatherlink.com 1.10,2013-06-04 00:58:00,
2013-06-03 21:13:00,78.0,75.0,29.98,WSW,248,0.0,-999.0,91,-99.99,,,0.09,weatherlink.com 1.10,2013-06-04 01:13:00,
2013-06-03 21:28:00,77.9,76.0,30.00,WSW,248,0.0,-999.0,92,-99.99,,,0.09,weatherlink.com 1.10,2013-06-04 01:28:00,
2013-06-03 21:43:00,77.8,75.0,30.01,WSW,248,0.0,-999.0,92,-99.99,,,0.09,weatherlink.com 1.10,2013-06-04 01:43:00,
2013-06-03 21:58:00,77.8,76.0,30.02,WSW,248,0.0,-999.0,93,-99.99,,,0.09,weatherlink.com 1.10,2013-06-04 01:58:00,
2013-06-03 22:13:00,77.7,76.0,30.02,WSW,248,0.0,-999.0,93,-99.99,,,0.10,weatherlink.com 1.10,2013-06-04 02:13:00,
2013-06-03 22:28:00,77.6,76.0,30.02,WSW,248,0.0,-999.0,94,-99.99,,,0.10,weatherlink.com 1.10,2013-06-04 02:28:00,
2013-06-03 22:43:00,77.6,76.0,30.03,WSW,248,0.0,-999.0,94,-99.99,,,0.10,weatherlink.com 1.10,2013-06-04 02:43:00,
2013-06-03 22:58:00,77.4,76.0,30.03,WSW,248,0.0,-999.0,95,-99.99,,,0.10,weatherlink.com 1.10,2013-06-04 02:58:00,
2013-06-03 23:13:00,77.3,76.0,30.03,WSW,248,0.0,-999.0,95,-99.99,,,0.10,weatherlink.com 1.10,2013-06-04 03:13:00,
2013-06-03 23:28:00,77.2,76.0,30.04,SE,132,5.0,-999.0,95,-99.99,,,0.10,weatherlink.com 1.10,2013-06-04 03:28:00,
2013-06-03 23:43:00,76.7,75.0,30.05,South,172,4.0,-999.0,95,-99.99,,,0.10,weatherlink.com 1.10,2013-06-04 03:43:00,
2013-06-03 23:58:00,75.4,73.0,30.04,ESE,103,4.0,-999.0,93,-99.99,,,0.11,weatherlink.com 1.10,2013-06-04 03:58:00,